Weather reports worldwide

Advertisment
L9F, Netherlands (6207): temperature & dewpoint: 22.10.2020 15:00:00 - 28.10.2020 15:00:00 (CET)L9F, Netherlands (6207): wind speed & gusts: 22.10.2020 15:00:00 - 28.10.2020 15:00:00 (CET)L9F, Netherlands (6207): wind direction: 22.10.2020 15:00:00 - 28.10.2020 15:00:00 (CET)L9F, Netherlands (6207): reduced air pressure: 22.10.2020 15:00:00 - 28.10.2020 15:00:00 (CET)L9F, Netherlands (6207): visibility: 22.10.2020 15:00:00 - 28.10.2020 15:00:00 (CET)
Date & Time tt [°C] td [°C] ff [km/h] ff [kn] fx [km/h] fx [kn] dd ppp [hPa] vv [km]
28.10.2020 15:00:00 13,1 6,3 50 27 - - SW 1001,9 16
28.10.2020 14:00:00 13,0 6,2 59 32 61 33 SW 1001,9 10
28.10.2020 13:00:00 12,6 6,4 47 25 58 31 SW 1001,9 20
28.10.2020 12:00:00 12,4 7,0 59 32 58 31 SW 1001,6 10
28.10.2020 11:00:00 12,3 7,0 57 31 58 31 SW 1001,1 10
28.10.2020 10:00:00 12,0 6,3 43 23 68 37 SSW 1001,4 18
28.10.2020 09:00:00 12,8 6,3 52 28 61 33 SSW 1000,9 10
28.10.2020 08:00:00 12,9 5,4 55 30 58 31 SW 1000,8 10
28.10.2020 07:00:00 12,7 6,3 43 23 50 27 SW 1000,0 17
28.10.2020 06:00:00 12,6 5,6 40 21 47 25 SW 1000,2 17
28.10.2020 05:00:00 12,2 5,6 43 23 50 27 SW 999,7 17
28.10.2020 04:00:00 12,1 6,2 44 24 47 25 WSW 999,0 10
28.10.2020 03:00:00 12,1 5,9 48 26 50 27 WSW 998,9 10
28.10.2020 02:00:00 12,5 7,2 52 28 50 27 WSW 998,4 10
28.10.2020 01:00:00 12,9 7,1 44 24 50 27 W 997,3 10
28.10.2020 00:00:00 13,1 7,4 50 27 50 27 W 996,0 10
27.10.2020 23:00:00 12,8 10,4 54 29 72 39 SW 995,3 4,5
27.10.2020 22:00:00 11,2 10,0 74 40 76 41 S 995,7 5
27.10.2020 21:00:00 10,8 9,3 78 42 79 43 S 996,2 3,6
27.10.2020 20:00:00 10,7 9,2 76 41 79 43 S 996,6 3,9
27.10.2020 19:00:00 11,0 8,5 70 38 72 39 S 997,5 7
27.10.2020 18:00:00 11,5 8,1 65 35 68 37 S 997,7 10
27.10.2020 17:00:00 10,8 8,9 63 34 61 33 S 998,7 4,9
27.10.2020 16:00:00 11,5 7,4 67 36 76 41 SSW 999,0 10
27.10.2020 15:00:00 11,1 8,5 47 25 76 41 SSW 999,5 14
27.10.2020 14:00:00 11,5 6,2 55 30 65 35 SW 999,7 10
27.10.2020 13:00:00 12,5 6,1 54 29 58 31 SW 1000,0 10
27.10.2020 12:00:00 12,6 7,2 41 22 50 27 SW 1000,2 10
27.10.2020 11:00:00 12,3 6,4 50 27 50 27 SW 1000,0 10
27.10.2020 10:00:00 12,0 6,6 39 21 43 23 SW 999,9 10
27.10.2020 09:00:00 12,1 6,0 46 25 47 25 SW 999,9 10
27.10.2020 08:00:00 12,0 6,4 46 25 47 25 SW 999,5 10
27.10.2020 07:00:00 12,2 6,7 46 25 47 25 SW 999,1 10
27.10.2020 06:00:00 11,9 6,5 44 24 43 23 SW 998,9 10
27.10.2020 05:00:00 12,0 6,7 40 21 47 25 WSW 998,3 22
27.10.2020 04:00:00 12,2 6,9 48 26 47 25 SW 998,1 10
27.10.2020 03:00:00 12,2 6,6 44 24 47 25 SW 998,2 10
27.10.2020 02:00:00 12,3 6,9 46 25 47 25 SW 998,2 10
27.10.2020 01:00:00 12,5 6,2 46 25 47 25 WSW 997,9 10
27.10.2020 00:00:00 12,4 7,0 42 23 43 23 WSW 997,8 10
26.10.2020 23:00:00 12,5 7,2 41 22 43 23 WSW 997,5 10
26.10.2020 22:00:00 12,7 7,4 37 20 40 21 SW 997,4 10
26.10.2020 21:00:00 12,4 7,5 35 19 40 21 WSW 997,2 10
26.10.2020 20:00:00 12,2 8,1 31 17 43 23 SW 996,8 10
26.10.2020 19:00:00 11,0 8,3 32 18 50 27 S 997,1 13
26.10.2020 18:00:00 10,6 7,2 52 28 61 33 WSW 996,5 4,8
26.10.2020 17:00:00 12,4 6,6 52 28 54 29 SW 996,4 10
26.10.2020 16:00:00 11,8 7,1 48 26 61 33 SSW 996,9 10
26.10.2020 15:00:00 10,9 7,4 50 27 72 39 SW 996,9 8
26.10.2020 14:00:00 11,7 7,7 52 28 54 29 SSW 997,0 10
26.10.2020 13:00:00 10,3 5,4 42 23 54 29 SSW 997,5 6
26.10.2020 12:00:00 10,4 7,7 39 21 54 29 S 997,6 10
26.10.2020 11:00:00 10,3 6,9 44 24 50 27 SSW 997,6 10
26.10.2020 10:00:00 10,4 7,7 48 26 58 31 SSW 997,6 10
26.10.2020 09:00:00 10,8 7,9 55 30 58 31 S 998,1 9
26.10.2020 08:00:00 10,9 6,8 46 25 50 27 S 997,5 10
26.10.2020 07:00:00 11,0 7,5 54 29 50 27 S 997,3 10
26.10.2020 06:00:00 10,1 8,2 42 23 61 33 S 996,9 10
26.10.2020 05:00:00 9,8 6,4 41 22 43 23 SW 997,2 3,0
26.10.2020 04:00:00 11,5 7,6 35 19 43 23 SSW 997,1 10
26.10.2020 03:00:00 11,7 7,4 39 21 43 23 SW 996,9 10
26.10.2020 02:00:00 11,4 7,1 48 26 47 25 SW 997,6 10
26.10.2020 01:00:00 11,3 7,7 41 22 50 27 SSW 998,0 5
26.10.2020 00:00:00 11,0 7,9 44 24 61 33 SSW 998,3 9
25.10.2020 23:00:00 11,5 6,1 48 26 50 27 SSW 998,1 10
25.10.2020 22:00:00 11,9 9,0 52 28 54 29 S 998,5 9
25.10.2020 21:00:00 12,2 8,6 54 29 58 31 SSW 998,4 10
25.10.2020 20:00:00 12,2 9,2 48 26 50 27 S 998,5 10
25.10.2020 19:00:00 12,8 9,1 52 28 54 29 SSW 998,8 10
25.10.2020 18:00:00 12,9 9,3 50 27 50 27 S 998,5 10
25.10.2020 17:00:00 12,8 7,8 54 29 54 29 SSW 998,2 10
25.10.2020 16:00:00 12,5 8,6 52 28 58 31 SSW 998,5 10
25.10.2020 15:00:00 13,1 8,9 54 29 58 31 SSW 998,6 10
25.10.2020 14:00:00 13,1 6,4 50 27 58 31 SSW 998,8 10
25.10.2020 13:00:00 13,7 6,0 52 28 50 27 SW 998,6 10
25.10.2020 12:00:00 13,6 6,2 50 27 50 27 SW 999,0 10
25.10.2020 11:00:00 13,6 8,5 46 25 47 25 SW 998,8 10
25.10.2020 10:00:00 13,5 8,5 44 24 47 25 SW 998,4 10
25.10.2020 09:00:00 13,3 9,4 37 20 54 29 SW 997,8 10
25.10.2020 08:00:00 13,4 10,7 47 25 61 33 SSW 997,5 15
25.10.2020 07:00:00 12,7 11,0 59 32 65 35 SW 997,1 6
25.10.2020 06:00:00 12,6 11,0 54 29 72 39 SSW 997,1 5
25.10.2020 05:00:00 13,3 9,9 55 30 68 37 SW 996,8 8
25.10.2020 04:00:00 13,9 11,8 70 38 86 47 SW 996,9 6
25.10.2020 03:00:00 15,5 11,7 87 47 97 53 SSW 996,8 9
25.10.2020 02:00:00 15,8 11,7 93 50 101 54 S 997,1 10
25.10.2020 01:00:00 - - - - - - - - -
25.10.2020 00:00:00 16,0 11,8 89 48 97 53 S 998,4 10
24.10.2020 23:00:00 16,0 12,0 74 40 86 47 S 999,2 10
24.10.2020 22:00:00 14,6 12,0 72 39 72 39 S 999,9 10
24.10.2020 21:00:00 14,5 12,0 68 37 72 39 S 1000,7 10
24.10.2020 20:00:00 14,3 11,9 67 36 68 37 S 1001,5 10
24.10.2020 19:00:00 14,7 11,6 67 36 72 39 S 1002,2 10
24.10.2020 18:00:00 15,0 11,0 58 31 76 41 S 1003,4 19
24.10.2020 17:00:00 14,7 11,3 67 36 72 39 S 1003,9 10
24.10.2020 16:00:00 14,3 10,8 65 35 68 37 SSW 1005,0 10
24.10.2020 15:00:00 14,2 10,6 63 34 65 35 SSW 1005,7 10
24.10.2020 14:00:00 14,0 10,7 61 33 65 35 SSW 1006,2 10
24.10.2020 13:00:00 14,2 10,8 54 29 58 31 SW 1006,5 10
24.10.2020 12:00:00 13,8 10,4 55 30 65 35 SSW 1006,9 10
24.10.2020 11:00:00 13,2 10,6 54 29 54 29 SSW 1007,4 10
24.10.2020 10:00:00 13,6 8,2 46 25 47 25 SSW 1007,6 10
24.10.2020 09:00:00 13,1 6,1 46 25 50 27 SW 1007,9 10
24.10.2020 08:00:00 12,6 5,3 41 22 43 23 SW 1007,9 10
24.10.2020 07:00:00 12,4 4,5 41 22 43 23 SW 1007,7 10
24.10.2020 06:00:00 12,8 5,6 39 21 40 21 SW 1007,7 10
24.10.2020 05:00:00 12,4 5,8 31 17 32 18 WSW 1008,1 10
24.10.2020 04:00:00 12,3 5,9 29 16 32 18 WSW 1008,2 10
24.10.2020 03:00:00 12,3 6,8 31 17 32 18 WSW 1008,3 10
24.10.2020 02:00:00 12,4 6,7 25 14 32 18 W 1008,3 18
24.10.2020 01:00:00 12,5 7,1 35 19 36 19 W 1008,0 10
24.10.2020 00:00:00 13,0 8,8 41 22 47 25 W 1007,8 10
23.10.2020 23:00:00 14,1 10,6 41 22 43 23 WSW 1007,4 10
23.10.2020 22:00:00 14,1 10,6 41 22 50 27 WSW 1006,8 10
23.10.2020 21:00:00 14,5 11,2 50 27 58 31 WSW 1006,3 10
23.10.2020 20:00:00 14,9 12,0 67 36 72 39 SW 1006,0 10
23.10.2020 19:00:00 13,5 11,8 37 20 47 25 SSW 1006,6 4,4
23.10.2020 18:00:00 14,6 11,8 36 19 43 23 SW 1006,8 14
23.10.2020 17:00:00 14,5 11,8 44 24 50 27 SW 1006,6 10
23.10.2020 16:00:00 14,2 12,2 50 27 54 29 SSW 1007,1 10
23.10.2020 15:00:00 14,3 12,0 46 25 54 29 SSW 1007,2 10
23.10.2020 14:00:00 13,5 11,3 41 22 40 21 S 1007,6 8
23.10.2020 13:00:00 12,3 11,1 39 21 43 23 S 1008,1 6
23.10.2020 12:00:00 12,8 11,5 41 22 43 23 SSW 1008,7 6
23.10.2020 11:00:00 12,7 11,6 37 20 40 21 SSW 1009,0 1,5
23.10.2020 10:00:00 13,3 10,9 22 12 25 14 S 1009,3 13
23.10.2020 09:00:00 13,6 9,1 24 13 29 16 SW 1009,6 10
23.10.2020 08:00:00 13,2 8,2 21 11 32 18 SW 1009,5 10
23.10.2020 07:00:00 13,1 7,5 28 15 32 18 SW 1009,3 10
23.10.2020 06:00:00 13,0 7,1 22 12 32 18 SW 1009,5 10
23.10.2020 05:00:00 12,7 6,3 28 15 32 18 WSW 1009,5 10
23.10.2020 04:00:00 12,7 5,9 25 14 36 19 WSW 1009,8 18
23.10.2020 03:00:00 12,8 6,8 31 17 32 18 WSW 1010,2 10
23.10.2020 02:00:00 12,9 5,7 31 17 32 18 WSW 1010,0 10
23.10.2020 01:00:00 13,0 7,0 35 19 36 19 WSW 1010,0 10
23.10.2020 00:00:00 13,1 6,8 37 20 40 21 W 1009,8 10
22.10.2020 23:00:00 13,1 6,0 42 23 43 23 WSW 1009,5 10
22.10.2020 22:00:00 13,4 5,9 46 25 50 27 WSW 1009,3 10
22.10.2020 21:00:00 13,4 7,0 42 23 47 25 WSW 1009,0 10
22.10.2020 20:00:00 13,3 7,5 44 24 43 23 W 1008,6 10
22.10.2020 19:00:00 13,7 10,2 50 27 54 29 WSW 1008,3 10
22.10.2020 18:00:00 14,5 10,2 54 29 58 31 WSW 1007,6 10
22.10.2020 17:00:00 14,6 10,5 55 30 65 35 SW 1007,2 10
22.10.2020 16:00:00 14,7 10,5 50 27 65 35 SW 1007,0 11
22.10.2020 15:00:00 14,6 10,4 50 27 58 31 SW 1006,8 10

tt = temperature
td = dewpoint
ff = wind speed
fx = gusts
dd = wind direction
ppp = reduced air pressure
vv = visibility

Next stations